ROMMA est une association bénévole à but non lucratif. Votre soutien est indispensable : ADHERER à ROMMA ou FAIRE un DON

Tourrette-Levens - (06, Alpes-Maritimes)

Côte-d'Azur (416 m)   Longitude: 07° 16' 12" E   Latitude: 43° 47' 24" N Station partenaire n°152
 

Détail journalier du     <<     >>

Température Precipitation Humidité Pression Vent Dir Rafale Dir. rafale Ensol.
Heure (°C) (mm) (%) (hPa) (km/h) (km/h) (min)
01:00 8.308210231NNE5NO0
02:00 8.308110221NE10NNO0
03:00 9.007810223SO11SSO0
04:00 8.607910224SO10SSO0
05:00 8.108010223SSO8SO0
06:00 8.207910221O6SO0
07:00 7.907710222NNO15NNO0
08:00 10.1071102305SSE0
09:00 12.706410234NE13NE42
10:00 15.405610234NE8ENE60
11:00 16.505110234ENE11ESE60
12:00 16.905410235ESE19S60
13:00 17.404810236ESE18SSE60
14:00 18.104710236ESE19ENE60
15:00 17.304810237E23E60
16:00 17.405010226E16ESE60
17:00 16.404710225E15NE60
18:00 14.605110224S15SSE23
19:00 13.505910222SE10SSE0
20:00 11.606610221ONO5ONO0
21:00 10.9066102205ONO0
22:00 10.3069102302ONO0
23:00 9.8070102303ONO0
minuit 9.70711024000

Graphique du 17-04-2019

 

Serveur OMMA